Submittal Forms
Current Contests
Recent Contests

Club Activity Tracker - Arizona Outlaws Contest Club (from club selection on form)

Recent postings for the selected club or group are listed below. Other than the call used, all calls listed are only those associated with the club or group. Click on a call to see the details of the posting.
Status Key: new=new posting, update=update prior posting, move=change club/group, delete=delete prior posting.

Sort by   for past

TimestampCallContestClassPowerScoreStatus
2021-05-14 17:54:17KY7M(@NA7TB)CWopsTSingle OpHP29,503new6421
2021-05-14 03:03:05AA7VNCCC SprintSingle OpLP729new6425
2021-05-13 04:07:16N4ZZCWopsTSingle OpLP23,630new6421
2021-05-12 20:46:17KY7MCWopsTSingle OpHP2,809new6419
2021-05-12 20:06:48K6LLCWopsTSingle OpHP28,224new6420
2021-05-12 20:01:57W8TKCWopsTSingle OpLP15,625new6420
2021-05-12 19:56:17KC7VCWopsTSingle OpHP3,969new6420
2021-05-12 14:03:23N4ZZCWopsTSingle OpLP34,225new6419
2021-05-12 14:02:01N6WINCWopsTSingle OpHP12,075new6419
2021-05-12 13:58:23KC7VCWopsTSingle OpHP8,100new6419
 
2021-05-11 23:25:45N4ZZCQ-MSOABCWHP19,178new6412
2021-05-10 01:05:06NG7MKRC SSTSingle OpHP1,764new6415
2021-05-09 21:37:56K7AZTCQ-MSOABCWLP280new6412
2021-05-09 21:21:56KY7MCQ-MSOSB/20CWHP15,264new6412
2021-05-09 16:57:58N9NAVolta RTTYSOABHP6,131,034new6411
2021-05-09 16:43:59N9NACQ-MSOABCWHP6,290new6412
2021-05-09 14:40:02K7JQCQ-MSOABCWHP10,444new6412
2021-05-09 13:59:02K8IACQ-MSOABCWHP56,304new6412
2021-05-07 03:03:37AA7VNCCC SprintSingle OpLP1,900new6409
2021-05-06 21:21:02KK7ACNewEngQPSingle OpLP20new6397
 
2021-05-06 04:10:23N6HICWopsTSingle OpQRP90new6404
2021-05-06 04:09:02WA7AN(K9DR)CWopsTSingle OpLP2,808new6404
2021-05-06 04:04:02N9NACWopsTSingle OpHP7,030new6404
2021-05-06 04:02:55N4ZZCWopsTSingle OpLP20,115new6404
2021-05-06 04:01:26N6WINCWopsTSingle OpHP24,649new6404
2021-05-06 03:17:39NG7MCWopsTAcademy Single OpHP1,600new6404
2021-05-05 20:13:12N9NACWopsTSingle OpHP25new6403
2021-05-05 20:05:20N4ZZCWopsTSingle OpLP27,984new6403
2021-05-05 20:04:28N6HICWopsTSingle OpQRP64new6403
2021-05-05 20:01:32NA2U(@NA7TB)CWopsTSingle OpHP28,900new6403
 
2021-05-05 19:40:55K7WPCWopsTSingle OpHP3,249new6403
2021-05-05 19:30:32KE6KCWopsTSingle OpLP625new6403
2021-05-05 19:28:24KE6KCWopsTSingle OpLP289new6402
2021-05-05 14:16:19N6HICWopsTSingle OpQRP25new6402
2021-05-05 14:02:36N6WINCWopsTSingle OpHP17,544new6402
2021-05-05 13:48:59KC7VCWopsTSingle OpHP5,625new6402
2021-05-04 14:11:44KK7ACInQPSingle OpLP1,350new6395
2021-05-03 22:40:30KK7AC7QPSOSSBLP124,700new6394
2021-05-03 17:29:40KK6MC/M7QPM/S MobileMixedLP62,972update6394
 (@KK6MC)
2021-05-03 16:13:27N7T(KF7DYX,AG7GB,N7NWL,AE7VA)7QPCnty Exped M/MLP75,656new6394
 
2021-05-03 15:11:47ND7K7QPM/MHP562,626update6394
 (W4IX,AA7V,ND7K,@N6WIN)
2021-05-03 03:47:02N7GP7QPSOMixedHP148,434new6394
2021-05-02 19:54:41K7NJ7QPSO(A)CWHP217,425new6394
2021-05-02 17:13:47KE2VB7QPSOCWHP6,732new6394
2021-05-02 17:09:05N6HI7QPSOCWQRP2,856new6394
2021-05-02 17:08:48N7LR7QPM/SHP51,300new6394
 (W9CF,@N7LR)
2021-05-02 16:57:18NY7N7QPSO(A)SSBLP924new6394
2021-05-02 16:12:06K7W(@K6WSC)7QPSOCWLP152,751update6394
2021-05-02 15:50:29NG7M7QPM/SHP131,755new6394
 (KJ7NZL,W7CT,@NG7M)
2021-05-02 15:48:19N7A7QPM/MHP465,596new6394
 (NA2U,KC7V,N7NR,AA7A,KY7M,N7A,@NA7TB)
 
2021-05-02 15:47:19W7Z(@W7ZR)7QPSO(A)CWHP82,350new6394
2021-05-02 15:45:21N9NA7QPSO(A)MixedHP41,125new6394
2021-05-02 15:41:05N7AT(@K8IA)7QPSOCWHP53,948new6394
2021-05-02 15:34:24NU7Y7QPSO(A)CWQRP36,585new6394
2021-05-02 14:49:54K7AZT7QPSOCWLP26,790new6394
2021-05-02 13:54:09N7IR7QPSOCWLP34,662new6394
2021-05-02 13:12:17WA7AN(K9DR)7QPSO(A)CWLP107,055new6394
2021-05-02 12:35:58W7GES7QPSO(A)MixedHP3,186new6394
2021-05-02 11:33:14K7JQ7QPSOMixedHP59,724new6394
2021-05-02 07:15:22K7L(@K6LL)7QPSO(A)MixedHP376,740new6394
 
2021-05-02 07:11:13W7CXX(WA7LNW)7QPSO(A)MixedHP200,872new6394
2021-05-02 06:22:49K7WP7QPSOCWHP24,624new6394
2021-04-30 21:06:40W8TKKRC SSTSingle OpLP391new6391
2021-04-30 03:02:48AA7VNCCC SprintSingle OpLP1,702new6390
2021-04-29 18:50:33KE6KCWopsTSingle OpLP225new6386
2021-04-29 15:50:15N7RDCWopsTSingle OpLP1,600new6386
2021-04-29 04:42:11NG7MCWopsTAcademy Single OpHP24,649new6386
2021-04-29 03:15:29N4ZZCWopsTSingle OpLP1,369new6386
2021-04-28 20:08:43KC7V(@K8IA)CWopsTSingle OpHP24,336new6385
2021-04-28 20:04:45N6WINCWopsTSingle OpHP29,241new6385
 
2021-04-28 20:04:06N4ZZCWopsTSingle OpLP17,680new6385
2021-04-28 20:02:18W8TKCWopsTSingle OpLP16,900new6385
2021-04-28 19:27:34KE6KCWopsTSingle OpLP256new6385
2021-04-28 19:26:46KE6KCWopsTSingle OpLP144new6384
2021-04-28 14:05:21N6WINCWopsTSingle OpHP6,396new6384
2021-04-28 14:04:01N4ZZCWopsTSingle OpLP26,404new6384
2021-04-28 14:00:28KC7VCWopsTSingle OpHP576new6384
2021-04-26 20:02:37N4ZZFlQPSOAB(A)CWHP12,040new6375
2021-04-25 22:46:08N9NASPDX RTTYSOABHP6,006new6372
2021-04-25 22:27:39N9NAFlQPSOAB(A)MixedHP6,525new6375
 
2021-04-25 22:22:53N7LRFlQPM/SMixedHP1,809new6375
 (W9CF,@N7LR)
2021-04-25 22:16:54K7JQFlQPSOAB(A)MixedHP20,604new6375
2021-04-25 22:14:28KY7MFlQPSOAB(A)MixedHP51,816new6375
2021-04-25 22:05:26AA7VFlQPSOABCWHP30,016new6375
2021-04-25 21:51:43K7AZTFlQPSOABCWLP3,080new6375
2021-04-25 21:08:00NG7MFlQPSOAB(A)CWHP1,140new6375
2021-04-25 15:08:21N7GPSPDX RTTYSOABHP31,434new6372
2021-04-25 01:07:43W7ZRSPDX RTTYSOABHP49,920new6372
2021-04-23 03:00:46AA7VNCCC SprintSingle OpLP756new6370
2021-04-22 15:56:46KE6KCWopsTSingle OpLP324update6365
 
2021-04-22 04:08:11KE6KCWopsTSingle OpLP1,369new6366
2021-04-22 04:06:13KE6KCWopsTSingle OpLP324new6364
2021-04-21 20:06:53KY7MVaQPSOAB/MixedFixedHP40new6285
2021-04-21 20:06:00K6LLCWopsTSingle OpHP27,556new6365
2021-04-21 20:02:52PJ2/NA2U(NA2U,@PJ2T)CWopsTSingle OpHP13,924new6365
2021-04-21 20:02:46N6WINCWopsTSingle OpHP23,104new6365
2021-04-21 20:02:39KY7MCWopsTSingle OpHP10,404new6365
2021-04-21 20:02:22N4ZZCWopsTSingle OpLP18,221new6365
2021-04-21 20:01:43KC7VCWopsTSingle OpHP8,100new6365
2021-04-21 14:28:48NA2U(@NA7TB)CWopsTSingle OpHP625new6364
 
2021-04-21 14:04:40N4ZZCWopsTSingle OpLP32,578new6364
2021-04-21 14:01:44N6WINCWopsTSingle OpHP15,240new6364
2021-04-21 13:55:21KC7VCWopsTSingle OpHP5,329new6364
2021-04-19 22:29:20N7GPCQMM DXSOSB/80HP2,410new6356
2021-04-19 02:34:18N9NACQMM DXSOABHP54,320new6356
2021-04-19 01:24:539A5SSS(KO7SS)CQMM DXSOSB/40LP11,200new6356
2021-04-19 00:21:35K7HPCQMM DXSOABHP36,348new6356
2021-04-18 23:51:45KC7VCQMM DXSOABHP7,859new6356
2021-04-18 23:19:44W7ZRCQMM DXSOSB/15HP11,500new6356
2021-04-18 23:13:34K7AZTCQMM DXSOABLP6,657new6356
 
2021-04-18 22:02:07K7JQCQMM DXSOABHP37,544new6356
2021-04-18 20:14:38KO7SSCQMM DXSOABHP41,920new6356
2021-04-18 19:41:31K7MYCQMM DXSOABLP2,366new6356
2021-04-15 04:42:52KE6KCWopsTSingle OpQRP1,444new6347
2021-04-15 04:04:05N6WINCWopsTSingle OpHP20,850new6347
2021-04-15 04:02:50NG7MCWopsTSingle OpHP22,200new